Weather in Saldus

Latvia     56°39′59″N   22°29′38″E
temp.,
°C
wind,
m/s
gust,
m/s
humid.,
%
clouds,
%
prec.,
mm/h
press.,
hPa
HPBL,
m
26 february, fri
fri2623:00+6wsw6149199 0.0 1015512
02:00+7w6149099 0.0 1015825
05:00+4w6157767 0.0 1014793
08:00+3w6148449 0.0 1014646
11:00+5w7128248 0.0 10141009
14:00+5w7128174 0.0 1013894
17:00+6w6127997 0.0 1012955
20:00+3wnw4109065 0.0 1013428
27 february, sat
sat2723:00+2wnw4109218 0.0 1014307
02:00+2nw5138835 0.0 1016621
05:00+1nw6148818 0.0 1016718
08:00+1nnw5148933 0.0 1020587
11:00+4nnw611640 0.0 1022856
14:00+5nnw711590 0.0 1024950
17:00+3nnw612630 0.0 1025857
20:000nnw410850 0.0 1027453
28 february, sun
sun2823:00−1nw37950 0.0 1028277
02:000wnw399238 0.0 1028301
05:000wnw399693 0.0 1027293
08:00+1w4119190 0.0 1027306
11:00+5nw59750 0.0 1026549
14:00+4nw5128436 0.1 1027713
17:00+4nw41281100 0.0 1027577
20:00+2nw4129073 0.0 1028405
1 march, mon
mon123:00+1nw39940 0.0 1029265
02:00+1nw39950 0.0 1030218
05:00+1wnw38950 0.0 1030184
08:00+1wnw36940 0.0 1031130
11:00+6w36750 0.0 1032310
14:00+9w48640 0.0 1031492
17:00+7w496927 0.0 1030442
20:00+3w4118130 0.0 1030359
2 march, tue
tue223:00+3w4118858 0.0 1030288
02:00+1w389470 0.0 1031165
05:00+1w2594100 0.0 103199
08:00+1w239499 0.0 103166
11:00+5wsw248599 0.0 1032234
14:00+8w347582 0.0 1032494
17:00+6w35790 0.0 1031334
20:00+2w25950 0.0 1030130